Regional Weather Roundup
Issued by NWS

Home | Current Version | Previous Version | Text Only | Print | Product List | Glossary Off
Versions: 1 2 3 4 5 6 7 8 9 10 11 12 13 14 15 16 17 18 19 20 21 22 23 24 25 26 27 28 29 30 31 32 33 34 35 36 37 38 39 40 41 42 43 44 45 46 47 48 49 50

000
ASUS43 KLMK 250710
RWRKY
KENTUCKY REGIONAL WEATHER ROUNDUP
NATIONAL WEATHER SERVICE LOUISVILLE KY
300 AM EDT MON JUL 25 2016

NOTE "FAIR" INDICATES FEW OR NO CLOUDS BELOW 12,000 FEET
WITH NO SIGNIFICANT WEATHER AND/OR OBSTRUCTIONS TO VISIBILITY.

KYZ001>023-026-027-061>063-070>075-250800-
WESTERN AND SOUTH CENTRAL KENTUCKY

CITY           SKY/WX    TMP DP  RH WIND       PRES   REMARKS
PADUCAH        CLEAR     78  75  90 SE3       29.97F
HENDERSON      CLEAR     75  72  88 CALM      29.97F
OWENSBORO      CLEAR     80  78  94 CALM      30.00S
HOPKINSVILLE   CLEAR     79  75  87 CALM      30.01R
BOWLING GREEN  CLEAR     80  76  87 CALM      30.02R
GLASGOW        CLEAR     77  77 100 CALM      30.03R
$$

KYZ024-025-028>034-038-045-046-053-250800-
NORTH CENTRAL KENTUCKY

CITY           SKY/WX    TMP DP  RH WIND       PRES   REMARKS
LOUISVILLE/SDF PTCLDY    82  74  76 W3        30.01R
LOUISVILLE/LOU CLEAR     83  74  74 CALM      30.02R
FORT KNOX      LGT RAIN  75  75 100 CALM      30.01R
$$

KYZ035>037-039>044-047>052-055>060-089>105-250800-
NORTHEAST KENTUCKY

CITY           SKY/WX    TMP DP  RH WIND       PRES   REMARKS
LEXINGTON      CLEAR     78  73  84 SW6       30.04R
COVINGTON      PTCLDY    78  75  90 CALM      30.01S
FRANKFORT      CLEAR     79  73  82 W3        30.02R
$$

KYZ054-064>069-076>088-106>120-250800-
SOUTHEAST KENTUCKY

CITY           SKY/WX    TMP DP  RH WIND       PRES   REMARKS
JACKSON        CLEAR     79  74  84 CALM      30.06R
LONDON         CLEAR     75  71  87 CALM      30.06R
SOMERSET       CLEAR     73  73 100 CALM      30.05R
MIDDLESBORO    CLEAR     74  73  98 CALM      30.07R
MONTICELLO     SUNNY    N/A N/A N/A W10       30.06R
$$




USA.gov is the U.S. government's official web portal to all federal, state and local government web resources and services.